Location: Sungai Bunut
(2.6333°N, 113.7333°E)
Time: 16:20:51
(UTC+00:00)

Altair - Pass Details

Date: 11 December 2023
Orbit: 1501 x 1682 km, 47.2° (Epoch: 24 February)

Event Time Altitude Azimuth Distance (km) Brightness Sun altitude
Rises 20:00:35 0° 222° (SW) 4,929 10.0 -32.5°
Reaches altitude 10° 20:03:46 10° 223° (SW) 3,942 9.5 -31.8°
Maximum altitude 20:13:56 80° 309° (NW) 1,693 7.4 -29.5°
Drops below altitude 10° 20:23:55 10° 36° (NE) 3,867 9.7 -27.3°
Sets 20:27:00 0° 37° (NE) 4,832 10.3 -26.6°
